Flag for U.S.A. Weather past 2 weeks in St. Petersburg, Florida, U.S.A.

Now
81 °F

Thundershowers. Mostly cloudy.


Feels Like: 87 °F
Forecast: 77 / 89 °F
Wind: 7 mph from Northwest

Location: Whitted Airport

Current Time: Jul 24, 2014 at 12:57:49 PM

Latest Report: Jul 24, 2014 at 11:53 AM


Visibility: 10 mi

Pressure: 30.05 "Hg

Humidity: 82%

Dew point: 75 °F

Location of St. PetersburgLocation

Historic Weather in St. Petersburg — Graph

°F

St. Petersburg temperature yesterday

Maximum temperature yesterday: 90 °F (at 4:53 PM)
Minimum temperature yesterday: 80 °F (at 3:53 AM)
Average temperature yesterday: 85 °F

Past Weeks' High & Low Weather Summary

 TemperatureHumidityPressure
High92 °F (Jul 21, 3:53 PM)94% (Jul 15, 7:04 AM)30.14 "Hg (Jul 15, 7:04 AM)
Low77 °F (Jul 9, 3:53 PM)54% (Jul 19, 4:53 PM)29.90 "Hg (Jul 16, 4:53 AM)
Average83 °F76%30.03 "Hg
* Reported Jul 9 11:53 AM — Jul 24 11:00 AM, St. Petersburg, Weather by CustomWeather, © 2014

Note: Actual official high and low records may vary slightly from our data, if they occured in-between our weather recording intervals... More about our weather records

Advertising

St. Petersburg weather history for previous 24 hours

 ConditionsComfort  
Time TempWeatherWind HumidityBarometerVisibility
11:00 AM
Jul 24
85 °FThunderstorms. Partly sunny.8 mph75%30.05 "Hg10 mi
9:53 AM87 °FSunny.7 mph69%30.03 "Hg10 mi
8:53 AM86 °FSunny.3 mph70%30.03 "Hg10 mi
7:53 AM85 °FSunny.No wind68%30.02 "Hg10 mi
6:53 AM83 °FPassing clouds.No wind74%30.01 "Hg10 mi
5:53 AM82 °FPassing clouds.5 mph82%30.00 "Hg10 mi
4:53 AM82 °FLight rain. Overcast.3 mph79%29.99 "Hg10 mi
3:53 AM84 °FPassing clouds.No wind72%29.98 "Hg10 mi
2:53 AM85 °FClear.No wind72%30.00 "Hg10 mi
1:53 AM85 °FClear.3 mph70%30.01 "Hg10 mi
12:53 AM85 °FClear.No wind70%30.02 "Hg10 mi
11:53 PM
Jul 23
85 °FClear.3 mph70%30.01 "Hg10 mi
10:53 PM86 °FClear.5 mph67%30.02 "Hg10 mi
9:53 PM86 °FClear.7 mph67%30.01 "Hg10 mi
8:53 PM87 °FSunny.8 mph63%30.00 "Hg10 mi
7:53 PM88 °FSunny.7 mph59%29.99 "Hg10 mi
6:53 PM89 °FScattered clouds.8 mph59%29.99 "Hg10 mi
5:53 PM89 °FPassing clouds.10 mph59%30.00 "Hg10 mi
4:53 PM90 °FPassing clouds.3 mph57%30.01 "Hg10 mi
3:53 PM88 °FPartly sunny.7 mph59%30.03 "Hg10 mi
2:53 PM88 °FPartly sunny.8 mph63%30.04 "Hg10 mi
1:53 PM88 °FPassing clouds.8 mph57%30.06 "Hg10 mi
12:53 PM87 °FBroken clouds.9 mph61%30.06 "Hg10 mi
Weather by CustomWeather, © 2014

See weather overviewHow to use our weather pages